This demonstration page uses our WeatherBlox Daily Observations layout. Learn more.

Left ArrowRight Arrow

Hourly Observations for May 17, 2022

Temp ( °F °C ) Dew Point ( °F °C ) Humidity (%) Winds ( mph kmh ) Pressure ( in mb ) Visibility ( mi km ) Precip ( " mm )
12:56 am 00:56 Clear 70 21 50 10 50 50 S 7 11 29.92 1013 10 16 0.00 0.00
1:56 am 01:56 Mostly Cloudy 70 21 48 9 46 46 SSW 8 13 29.92 1013 10 16 0.00 0.00
2:56 am 02:56 Mostly Cloudy N/A N/A N/A S 5 7 N/A 10 16 0.00 0.00
3:56 am 03:56 Partly Cloudy 66 19 50 10 56 56 S 5 7 29.93 1013 10 16 0.00 0.00
4:56 am 04:56 Mostly Cloudy 64 18 50 10 60 60 SE 6 9 29.91 1013 10 16 0.00 0.00
5:56 am 05:56 Mostly Cloudy 63 17 52 11 68 68 SE 8 13 29.89 1012 10 16 0.00 0.00
6:56 am 06:56 Mostly Sunny 63 17 52 11 68 68 Calm 29.92 1013 10 16 0.00 0.00
7:56 am 07:56 Sunny 68 20 52 11 56 56 SE 8 13 29.87 1012 10 16 0.00 0.00
8:56 am 08:56 Sunny 72 22 52 11 50 50 SSE 14 22 29.87 1011 9 14 0.00 0.00
9:56 am 09:56 Partly Cloudy 75 24 52 11 44 44 SSE 13 20 29.88 1012 9 14 0.00 0.00
11:56 am 11:56 Partly Cloudy 78 25.5 53 11.6 42 42 SE 8 13 29.86 1011 9 14 0.00 0.00
12:56 pm 12:56 Partly Cloudy 81 27.1 53 11.9 39 39 ESE 7 11 29.81 1009 10 16 0.00 0.00
1:41 pm 13:41 Cloudy with Thunderstorms 77 25 54 12 44 44 Calm 29.82 1010 8 13 0.00 0.00
1:56 pm 13:56 Cloudy with Thunderstorms 77 25.1 54 12.3 45 45 SE 5 7 29.81 1010 6 10 0.00 0.00
2:56 pm 14:56 Mostly Cloudy with Strong Thunderstorms 64 18 57 13.7 76 76 N 23 37 29.94 1014 5 8 0.12 3.05
3:27 pm 15:27 Cloudy with Light Rain 64 18 57 14 78 78 NE 14 22 29.89 1012 10 16 0.00 0.00
3:41 pm 15:41 Cloudy 64 18 57 14 78 78 E 15 24 29.84 1010 10 16 0.00 0.00
3:56 pm 15:56 Mostly Cloudy 66 18.8 56 13.4 71 71 E 13 20 29.83 1010 10 16 0.12 3.05
4:56 pm 16:56 Mostly Cloudy 69 20.3 57 13.7 66 66 E 8 13 29.81 1010 10 16 0.00 0.00
5:56 pm 17:56 Partly Cloudy 70 21 59 14.9 68 68 E 8 13 29.80 1009 10 16 0.00 0.00
6:56 pm 18:56 Partly Cloudy 70 21.3 60 15.6 70 70 SE 10 17 29.78 1008 10 16 0.00 0.00
7:56 pm 19:56 Mostly Cloudy 70 21.2 62 16.4 74 74 SE 9 15 29.78 1008 10 16 0.00 0.00
8:56 pm 20:56 Mostly Cloudy 69 20.3 61 16.1 77 77 ESE 6 9 29.75 1007 10 16 0.00 0.00
9:56 pm 21:56 Mostly Clear 67 19.6 61 16 80 80 E 5 7 29.77 1008 10 16 0.00 0.00
10:42 pm 22:42 Cloudy with Thunderstorms 68 20 59 15 73 73 NE 7 11 29.77 1008 10 16 0.00 0.00
10:56 pm 22:56 Mostly Clear with Thunderstorms 68 19.8 59 15 74 74 ENE 10 17 29.77 1008 10 16 0.00 0.00
11:56 pm 23:56 Mostly Cloudy with Thunderstorms 65 18.4 60 15.6 84 84 Calm 29.78 1009 10 16 0.03 0.76

Powered by AerisWeather